[[{"header":{"parameterUnit":"m.s-1","parameterCategory":1,"la1":30.2992,"la2":30.254,"lo1":-89.0895,"lo2":-89.0443,"dy":0.0025,"dx":0.0025,"nx":19,"ny":19,"refTime":"2026-03-06T03:00:00:Z","depth":0,"parameterNumber":2,"parameterNumberName":"U-component_of_WINDS"},"data":[0,0,0,-3.6444,-3.6447,-3.6621,-3.6622,-3.6838,-3.6839,0,0,0,0,0,0,0,0,0,0,0,-3.6385,-3.6386,-3.6443,-3.6447,-3.6621,-3.6622,-3.6837,-3.6839,0,0,0,0,0,0,0,0,0,0,0,-3.6385,-3.6386,-3.6387,-3.6448,-3.6621,-3.6622,-3.6837,-3.6709,0,0,0,0,0,0,0,0,0,0,-3.6541,-3.648,-3.6386,-3.6388,-3.6449,-3.6621,-3.6622,-3.6703,-3.6717,-3.6755,0,-3.6785,0,-3.6815,-3.6853,-3.6854,0,0,0,-3.6453,-3.6468,-3.6521,-3.6388,-3.6451,-3.662,-3.6544,-3.6711,-3.6726,-3.6774,-3.6788,-3.6796,-3.6819,-3.6854,-3.6855,-3.7053,-3.7053,0,0,-3.6444,-3.6413,-3.651,-3.6531,-3.6501,-3.6539,-3.655,-3.672,-3.6735,-3.6789,-3.6802,-3.6822,-3.6856,-3.6857,-3.7052,-3.7053,0,0,0,-3.6412,-3.6406,-3.6455,-3.6522,-3.6553,-3.6544,-3.6556,-3.6727,-3.6746,-3.6804,-3.6825,-3.6857,-3.686,-3.7051,-3.7052,-3.7052,0,0,0,-3.6407,-3.6388,-3.6451,-3.6434,-3.655,-3.6642,-3.6559,-3.6734,-3.6754,-3.6824,-3.6857,-3.6861,-3.7051,-3.7052,-3.7051,-3.7057,0,0,0,-3.6376,-3.6384,-3.6407,-3.6432,-3.6505,-3.664,-3.6668,-3.6739,-3.6767,-3.6854,-3.6862,-3.705,-3.7052,-3.705,-3.7055,-3.7099,0,0,0,-3.6335,-3.6406,-3.6406,-3.6494,-3.6504,-3.6639,-3.6668,-3.677,-3.6845,-3.6858,-3.7051,-3.7052,-3.7049,-3.7054,-3.7097,-3.7128,-3.7139,0,0,-3.6407,-3.6413,-3.6467,-3.6473,-3.6599,-3.6615,-3.6743,-3.6842,-3.688,-3.6993,-3.6999,-3.7051,-3.7055,-3.7099,-3.7213,-3.7221,0,0,0,-3.648,-3.6518,-3.6558,-3.6627,-3.6703,-3.677,-3.6852,-3.689,-3.6987,-3.6931,-3.7082,-3.7085,-3.7112,-3.7128,-3.7135,-3.716,-3.7059,-3.7059,-3.7059,-3.6535,-3.6579,-3.6671,-3.6736,-3.6804,-3.6889,-3.6948,-3.7013,-3.7039,-3.7074,-3.7106,-3.7171,-3.7189,-3.7194,-3.7219,-3.7129,-3.7129,-3.7129,-3.7129,-3.6642,-3.6702,-3.6736,-3.6837,-3.6884,-3.6971,-3.7058,-3.7073,-3.7162,-3.7149,-3.7175,-3.7154,-3.7201,-3.7226,-3.713,-3.713,-3.713,-3.7129,-3.7129,-3.6681,-3.6717,-3.6761,-3.6867,-3.6944,-3.7011,-3.7094,-3.7136,-3.7175,-3.7201,-3.7241,-3.7241,-3.7245,-3.7218,-3.7218,-3.7218,-3.7219,-3.7219,-3.7219,-3.6702,-3.6752,-3.6816,-3.6905,-3.6956,-3.7028,-3.7117,-3.7169,-3.7238,-3.7262,-3.7262,-3.7284,-3.7198,-3.7174,-3.7222,-3.7222,-3.7221,-3.7221,-3.7221,-3.679,-3.6777,-3.6875,-3.6926,-3.7035,-3.711,-3.7163,-3.7267,-3.7316,-3.7357,-3.7375,-3.7306,-3.7315,-3.731,-3.729,-3.7365,-3.7365,-3.7365,-3.7365,-3.682,-3.683,-3.694,-3.7019,-3.7102,-3.716,-3.7273,-3.7345,-3.7418,-3.7452,-3.7449,-3.7427,-3.742,-3.7434,-3.7426,-3.7408,-3.7512,-3.7512,-3.7513,-3.6876,-3.6896,-3.6981,-3.705,-3.714,-3.7217,-3.7324,-3.7416,-3.7497,-3.7519,-3.748,-3.7474,-3.744,-3.7427,-3.7444,-3.743,-3.7399,0,0]},{"header":{"parameterUnit":"m.s-1","parameterCategory":1,"la1":30.2992,"la2":30.254,"lo1":-89.0895,"lo2":-89.0443,"dy":0.0025,"dx":0.0025,"nx":19,"ny":19,"refTime":"2026-03-06T03:00:00:Z","depth":0,"parameterNumber":3,"parameterNumberName":"V-component_of_WINDS"},"data":[0,0,0,2.3341,2.3342,2.3373,2.3373,2.341,2.341,0,0,0,0,0,0,0,0,0,0,0,2.3328,2.3328,2.3341,2.3342,2.3373,2.3373,2.3409,2.341,0,0,0,0,0,0,0,0,0,0,0,2.3328,2.3328,2.3328,2.3342,2.3373,2.3373,2.3409,2.3387,0,0,0,0,0,0,0,0,0,0,2.3358,2.3342,2.3328,2.3328,2.3342,2.3373,2.3373,2.3386,2.3389,2.3393,0,2.3395,0,2.3403,2.3412,2.3412,0,0,0,2.3345,2.334,2.3352,2.3328,2.3342,2.3373,2.336,2.3388,2.3391,2.3397,2.3396,2.3397,2.3404,2.3412,2.3412,2.3429,2.3429,0,0,2.3343,2.3332,2.335,2.3353,2.3347,2.3359,2.3361,2.339,2.3388,2.3396,2.3398,2.3404,2.3412,2.3413,2.3429,2.3429,0,0,0,2.3336,2.333,2.3342,2.3351,2.3357,2.336,2.3362,2.3387,2.3392,2.3399,2.3405,2.3413,2.3413,2.3429,2.3429,2.3416,0,0,0,2.3335,2.3326,2.3341,2.3334,2.3357,2.3372,2.3359,2.339,2.3393,2.3405,2.3413,2.3413,2.3429,2.3429,2.3416,2.3411,0,0,0,2.3327,2.3326,2.3329,2.3334,2.3347,2.3372,2.3378,2.3391,2.3397,2.3412,2.3413,2.3429,2.3429,2.3416,2.3412,2.3414,0,0,0,2.3316,2.3315,2.3328,2.333,2.3346,2.3363,2.3378,2.3392,2.3403,2.3413,2.3429,2.3429,2.3417,2.3412,2.3414,2.3413,2.3411,0,0,2.3308,2.3314,2.3316,2.3329,2.3341,2.3359,2.337,2.3391,2.3403,2.342,2.342,2.3416,2.3412,2.3414,2.3406,2.3404,0,0,0,2.331,2.3311,2.3317,2.3328,2.3344,2.3359,2.338,2.3388,2.3404,2.3409,2.3417,2.3415,2.3417,2.3417,2.3416,2.3419,2.3428,2.3428,2.3428,2.3282,2.3299,2.3305,2.3326,2.3336,2.3359,2.337,2.3386,2.3398,2.34,2.3405,2.3398,2.3398,2.3397,2.34,2.3406,2.3406,2.3406,2.3405,2.3274,2.3279,2.3299,2.3311,2.3329,2.334,2.3365,2.3374,2.3388,2.3395,2.3397,2.3404,2.3395,2.3399,2.3405,2.3405,2.3405,2.3405,2.3405,2.3258,2.3264,2.3275,2.3295,2.3309,2.3331,2.3345,2.3361,2.3376,2.3378,2.3387,2.3387,2.339,2.3381,2.3381,2.3381,2.3381,2.3381,2.3381,2.3237,2.325,2.3259,2.328,2.3291,2.3307,2.3334,2.3345,2.3363,2.3374,2.3374,2.3388,2.3391,2.3392,2.3381,2.3381,2.3381,2.3381,2.3381,2.3222,2.3229,2.3243,2.3254,2.3282,2.3297,2.3318,2.3341,2.3354,2.3361,2.3375,2.3375,2.3381,2.3382,2.3383,2.337,2.337,2.337,2.337,2.3209,2.3215,2.3235,2.3252,2.3271,2.3294,2.3312,2.3335,2.3358,2.3368,2.3372,2.3375,2.3376,2.3382,2.3383,2.3384,2.3372,2.3372,2.3372,2.3202,2.3211,2.3222,2.3246,2.327,2.3291,2.331,2.3331,2.336,2.3372,2.3376,2.3376,2.3381,2.3381,2.3392,2.3393,2.3396,0,0]}]]